GFSSW_con_lsi_057.txt.gz
Lid_Strength_Index
1 1 0 0 0 -0 -0 -1 -1 -1 -1 -1 -1 -0 -0 -0 1 3 8 4 2 -2 -0 6 7 7 7 8 8 10 14 16 15 14 13 11 11 10 11 12 11 10 10 10 8
1 1 1 0 0 -0 -0 -1 -1 -1 -1 -1 -0 -0 -0 -0 4 6 1 -2 -3 -2 6 8 9 8 10 9 9 12 15 14 12 12 12 11 12 11 11 11 13 12 10 9 7
1 1 1 1 0 0 -0 -0 -1 -1 -1 -1 -0 -0 0 1 8 8 -1 -2 -2 -1 6 7 7 8 11 10 10 12 14 12 11 10 11 11 12 11 12 11 11 11 11 10 9
1 1 1 1 1 0 -0 -0 -1 -1 -1 -1 -0 -0 0 5 13 6 -1 -1 -2 3 6 7 9 10 12 12 11 12 10 11 9 10 11 11 11 11 11 10 9 10 10 10 11
1 1 1 1 1 0 -0 -0 -0 -1 -1 -0 -0 -0 5 9 8 3 -1 -1 4 5 8 8 10 10 12 12 12 13 12 11 10 10 11 11 11 12 11 10 11 11 11 12 11
1 1 1 1 1 0 -0 -0 -1 -1 -1 -0 -0 0 8 11 4 1 2 4 5 7 8 8 9 9 11 12 13 13 12 11 10 10 11 11 13 12 11 11 11 11 11 12 11
1 1 1 0 0 0 -0 -0 -1 -1 -1 -0 -0 3 7 8 3 2 3 5 5 7 8 8 8 10 11 12 11 12 13 12 12 12 12 12 14 13 11 11 12 12 12 12 12
1 1 2 2 2 1 1 0 -0 -0 0 0 0 5 9 6 4 4 4 6 6 6 7 8 8 10 11 11 12 14 15 16 13 13 13 13 15 12 11 12 13 13 14 13 13
2 2 2 2 2 1 1 1 1 0 1 1 5 8 10 5 7 7 7 8 8 8 8 7 9 11 11 14 16 16 17 17 15 13 13 14 15 11 11 12 14 14 14 14 14
2 2 2 2 2 2 1 0 1 2 2 2 3 9 8 9 8 7 8 7 9 9 10 10 12 14 15 16 18 17 18 17 16 14 14 15 15 13 11 13 14 15 15 15 16
2 2 2 2 2 1 2 4 7 8 7 8 9 9 9 8 7 9 8 9 9 11 15 13 16 17 15 15 15 16 17 17 15 12 14 14 15 14 14 14 15 15 15 16 16
2 2 2 2 2 1 3 6 7 8 10 6 6 8 8 8 11 10 9 11 11 14 14 16 18 15 15 15 16 17 17 17 15 13 15 15 15 15 15 16 15 16 16 16 16
3 3 3 3 2 2 5 5 7 8 11 9 7 7 8 9 10 10 10 11 13 15 15 16 15 13 14 15 16 17 17 17 16 16 16 17 17 17 16 15 15 15 15 15 16
2 2 3 3 4 5 6 4 6 7 14 13 11 10 10 8 11 10 10 11 14 15 15 16 14 14 16 16 15 17 14 15 16 18 20 17 21 18 16 16 16 16 16 16 15
2 2 2 2 5 6 5 6 7 9 20 11 12 9 10 10 12 12 11 12 14 14 14 15 15 15 15 15 14 15 15 16 17 19 19 19 20 18 16 17 17 17 16 16 15
2 2 3 3 3 4 6 6 7 13 19 14 13 14 13 13 13 13 12 11 12 14 15 14 14 14 14 14 13 14 16 16 18 19 21 18 18 19 18 16 17 16 16 15 15
2 2 3 2 5 4 5 5 13 18 12 15 15 14 15 15 15 14 14 15 15 17 17 16 15 14 14 15 15 15 17 20 21 22 21 18 19 17 16 15 15 15 15 15 15
2 2 3 2 3 4 4 9 17 13 13 13 14 15 16 15 15 15 16 16 14 16 17 17 18 14 13 14 15 16 16 20 25 23 20 18 19 17 15 14 14 14 14 14 15
2 2 3 2 4 3 7 15 15 13 10 13 14 15 17 15 15 15 16 16 15 14 16 17 16 14 14 13 13 16 17 15 19 26 23 19 17 15 15 15 15 14 14 14 14
3 5 5 3 3 4 10 13 12 10 9 12 15 14 17 16 16 16 16 14 14 13 13 14 17 15 14 13 14 14 13 17 18 25 26 21 19 18 17 16 15 15 14 14 14
4 7 5 3 4 7 13 12 10 10 8 10 13 13 13 13 14 16 15 13 13 13 12 13 14 16 15 15 15 16 16 16 16 18 23 25 20 16 15 14 14 14 13 14 14
6 10 5 3 9 9 12 11 10 10 8 9 9 10 12 12 13 13 13 12 12 12 13 13 14 18 16 15 14 14 15 15 18 20 19 19 18 13 13 12 13 13 12 13 13
8 9 5 5 12 12 10 10 10 10 9 10 11 10 10 12 14 12 12 11 10 11 12 12 14 17 17 16 15 15 15 15 15 16 20 20 19 13 13 12 11 12 12 12 13
8 12 10 8 9 10 11 11 11 10 9 9 10 9 11 12 10 12 12 12 12 10 9 9 14 15 17 17 15 16 15 14 15 18 17 16 16 14 13 12 12 12 12 13 14
9 11 11 14 13 11 10 10 12 12 10 9 11 10 11 13 13 13 12 14 13 11 12 11 16 15 15 14 15 17 17 15 16 15 17 15 15 13 12 13 14 14 14 15 15
11 11 10 12 12 10 11 13 12 11 11 12 12 11 11 13 12 14 13 14 14 15 14 14 16 17 18 17 17 17 16 15 16 15 16 15 15 13 14 16 17 16 16 16 15
8 9 10 11 13 13 13 13 13 11 13 12 11 13 12 11 12 14 13 13 14 15 15 15 16 17 19 21 20 21 20 15 15 15 14 16 14 15 17 15 16 16 15 15 14

GFSSW_con_lsi_063.txt.gz
Lid_Strength_Index
1 1 1 1 0 -0 -0 -1 -1 -1 -1 -1 -1 -0 -0 -0 1 4 9 5 3 -2 1 6 6 7 7 7 7 9 14 15 14 13 12 10 10 9 9 9 9 9 8 7 5
1 1 1 1 1 0 -0 -1 -1 -1 -1 -1 -0 -0 -0 -0 5 8 2 -2 -3 -1 6 8 9 8 9 8 8 12 14 14 12 12 11 10 10 10 10 10 10 9 8 9 9
1 1 1 1 1 0 -0 -0 -1 -1 -1 -1 -0 -0 -0 2 9 10 -1 -1 -2 1 6 7 7 8 10 9 9 11 13 13 11 11 10 10 11 10 10 11 9 9 10 10 10
1 1 1 1 1 0 0 -0 -1 -1 -1 -1 -0 -0 0 6 14 7 -1 -1 -2 5 6 8 8 10 11 12 10 12 11 11 9 10 10 11 10 11 10 9 10 11 10 11 11
1 1 1 1 1 1 0 -0 -0 -1 -1 -1 -0 -0 6 9 8 3 -1 -0 5 6 8 8 10 10 12 12 11 11 11 11 10 11 11 11 11 11 11 12 10 10 11 12 12
0 1 1 1 1 1 0 0 -0 -1 -1 -1 -0 0 9 10 4 2 4 6 6 7 8 9 9 9 11 11 12 12 12 11 11 11 11 12 12 11 12 11 11 11 13 13 13
-0 0 0 0 0 0 0 -0 -0 -1 -1 -1 0 3 8 7 3 3 5 7 6 7 8 8 9 10 10 12 11 12 13 12 12 12 12 12 13 13 12 11 12 13 13 14 13
1 1 1 1 0 0 0 -0 -1 -1 -1 -0 0 6 9 6 3 3 5 6 6 7 7 7 8 9 10 11 12 14 14 15 12 12 12 12 14 13 12 12 13 14 14 14 14
2 1 1 1 1 1 1 1 1 1 1 1 6 9 9 5 7 6 7 7 8 9 8 8 9 11 11 14 15 15 16 16 14 13 13 13 14 14 13 13 14 15 15 14 14
2 2 2 2 2 2 2 1 1 3 4 3 5 10 9 10 9 7 8 8 9 10 10 10 12 14 15 15 17 17 18 17 16 14 15 15 15 15 14 14 16 16 16 15 15
1 1 2 2 2 2 2 4 7 9 8 9 10 10 10 10 9 9 8 9 10 11 13 13 15 15 14 15 15 16 17 17 16 15 15 15 15 15 15 15 16 16 16 16 16
1 1 1 1 1 1 2 7 8 8 11 8 8 8 8 9 12 10 8 11 12 14 14 15 16 13 14 15 16 16 17 18 16 15 15 16 16 16 17 17 17 17 17 16 16
2 2 2 2 2 3 4 6 7 8 11 9 8 9 8 9 11 11 10 11 13 15 15 15 14 14 15 16 17 17 18 18 17 16 16 17 17 18 17 17 17 16 16 16 16
2 2 2 2 4 5 5 4 5 7 14 13 10 9 10 9 12 10 10 11 13 15 15 16 14 15 16 16 15 18 16 16 16 17 19 17 20 18 18 18 17 17 17 16 16
2 2 2 2 5 5 5 5 6 8 20 12 12 10 10 10 12 12 11 12 14 14 14 16 16 15 15 15 15 16 15 16 16 17 19 19 20 18 18 19 18 17 17 16 16
1 2 2 3 3 4 6 4 5 13 19 13 13 14 12 13 13 13 12 11 12 14 15 14 14 14 14 14 14 15 16 16 18 19 22 19 18 19 19 17 17 17 16 16 16
1 2 2 2 5 5 4 5 13 18 12 15 15 14 14 15 15 14 15 15 15 17 17 16 15 15 14 16 15 16 17 20 21 22 21 19 19 17 16 16 16 16 16 16 16
1 2 3 2 4 4 5 9 17 14 13 14 15 15 14 15 15 15 16 16 15 16 18 18 18 16 15 15 16 17 16 20 24 23 21 18 20 17 16 15 15 14 15 15 16
1 1 3 2 3 3 7 15 15 14 12 14 15 17 17 16 15 16 17 16 14 15 15 18 18 16 15 15 14 17 18 16 21 27 23 19 18 16 16 16 16 15 15 16 16
2 3 4 1 3 4 10 13 12 10 11 13 15 15 18 17 16 17 17 15 15 14 14 15 18 16 16 15 15 16 15 18 19 24 26 21 19 18 17 17 17 16 16 16 15
2 6 3 1 3 7 13 12 10 9 9 12 13 13 16 16 16 17 16 15 14 15 13 14 16 17 16 17 17 17 17 17 17 18 22 24 20 17 16 16 16 16 15 15 15
4 10 3 2 9 9 12 10 8 9 9 9 10 11 14 14 16 16 16 15 13 14 15 14 15 20 18 16 16 16 16 16 17 20 20 20 18 15 14 15 15 15 14 15 15
6 7 4 3 12 12 10 10 9 10 9 10 11 10 10 12 15 14 15 12 12 13 14 13 15 20 18 17 17 17 16 16 16 16 17 20 18 15 15 15 14 15 14 14 15
7 10 8 8 7 10 11 11 11 8 9 9 10 9 11 12 11 13 12 12 11 11 10 10 14 15 17 16 17 18 17 16 15 17 17 17 18 16 16 15 15 15 14 14 15
8 10 10 13 10 9 9 10 12 12 9 8 11 10 11 14 13 13 11 13 13 11 11 12 15 14 15 16 17 18 18 17 16 15 16 15 16 15 13 13 13 13 14 15 15
9 11 11 12 11 10 10 11 11 11 10 11 12 10 10 13 12 14 13 13 14 13 13 12 16 15 16 16 15 15 16 17 16 15 16 16 16 13 13 14 14 14 14 14 15
8 8 9 10 12 11 11 11 11 9 11 12 11 10 11 10 12 13 11 11 11 14 14 15 16 16 18 19 19 19 17 15 15 16 15 17 14 15 16 14 13 15 14 14 14

GFSSW_con_lsi_069.txt.gz
Lid_Strength_Index
1 1 1 0 0 -0 -0 -1 -1 -1 -1 -1 -1 -1 -1 -1 -0 1 4 3 1 -2 1 3 3 3 3 4 4 4 8 9 9 9 8 6 7 6 5 6 6 5 5 6 5
1 1 1 1 1 0 -0 -1 -1 -1 -1 -1 -1 -1 -1 -0 2 4 2 -1 -2 -2 3 4 5 4 5 5 4 6 8 8 7 7 7 6 6 6 6 7 6 7 5 5 4
1 1 1 1 1 0 0 -0 -1 -1 -1 -1 -1 -1 -1 0 4 5 -0 -1 -2 1 3 4 4 5 6 5 6 6 8 8 8 7 6 7 7 6 7 8 7 7 6 6 5
1 1 1 1 1 1 0 -0 -1 -1 -1 -1 -1 -1 -0 1 9 4 -1 -1 -2 2 3 4 5 6 7 7 6 8 7 7 7 7 7 7 6 7 7 7 7 7 7 6 6
0 1 1 1 1 0 0 -0 -0 -1 -1 -1 -1 -1 1 4 4 1 -1 -1 2 3 4 5 6 7 8 7 7 8 7 7 6 6 6 6 7 7 7 7 7 7 7 7 7
0 1 1 1 1 0 0 0 -0 -1 -1 -1 -1 -0 3 6 2 1 2 3 3 4 5 5 6 6 7 7 8 7 7 7 7 7 7 8 7 8 8 7 8 8 8 8 8
0 1 1 1 1 0 0 0 0 -0 -1 -1 -1 1 3 4 1 1 3 3 3 4 5 4 5 6 6 8 7 7 8 7 6 7 7 7 9 9 8 7 8 8 8 8 8
0 1 1 1 1 1 1 1 0 -0 -0 0 0 2 5 3 0 2 2 4 3 4 4 4 4 5 6 6 7 8 8 10 8 8 8 9 10 8 8 8 8 8 8 9 9
0 0 0 0 0 0 0 0 0 -0 0 0 2 3 6 2 4 2 2 4 4 5 5 5 6 7 8 9 10 9 11 10 9 8 9 9 9 9 9 9 9 9 9 10 10
1 1 1 1 1 1 1 1 0 1 1 1 2 5 4 6 5 3 3 4 6 6 7 7 8 10 9 10 12 10 11 10 10 9 10 10 10 9 9 9 9 10 10 10 10
1 1 1 1 1 1 1 2 4 5 4 5 5 6 6 6 5 5 4 6 6 7 10 8 10 12 10 9 8 9 10 10 9 9 10 10 10 9 9 10 10 10 11 11 11
2 2 2 2 1 2 2 4 4 4 8 5 5 5 5 6 9 7 6 8 8 10 9 11 12 9 8 9 9 10 11 11 9 9 11 11 11 9 9 10 10 10 11 11 11
1 1 2 2 2 2 2 3 2 3 7 6 5 6 6 7 8 8 7 8 10 10 10 11 10 9 10 11 12 11 12 12 12 10 10 11 12 11 9 10 11 11 10 11 11
1 1 1 2 4 2 4 2 3 3 11 9 8 6 6 6 9 6 7 8 10 11 10 11 9 11 11 12 11 13 10 11 12 12 14 11 15 11 9 13 12 12 12 11 11
1 2 1 2 3 4 3 1 3 4 20 8 9 6 7 8 8 10 8 9 10 11 11 12 12 12 12 12 11 12 11 12 12 13 13 12 14 12 11 13 13 12 12 12 12
1 1 1 2 3 3 3 3 4 13 19 11 9 10 10 9 11 10 10 9 9 10 10 11 10 11 11 11 11 11 12 13 13 13 17 13 13 13 12 12 12 12 12 12 12
0 1 2 1 4 4 3 5 13 18 9 11 11 10 9 11 11 11 12 12 12 14 13 11 12 10 10 12 12 12 13 16 18 18 18 14 14 12 10 11 10 12 12 11 12
1 0 2 1 3 3 4 9 17 13 11 10 11 10 11 10 11 11 11 12 10 11 12 13 15 11 11 11 12 13 13 16 21 20 16 16 17 13 13 10 10 11 11 11 12
1 1 1 0 3 2 7 15 15 12 9 11 11 13 12 11 10 11 11 11 10 10 13 13 13 11 11 10 10 13 14 11 16 18 18 15 13 12 13 13 12 12 11 12 12
2 2 3 -1 1 3 10 13 12 8 8 10 12 11 13 11 12 12 11 9 10 9 8 10 14 13 12 12 11 12 10 15 15 20 21 15 14 14 15 14 13 12 12 12 12
2 6 2 -1 1 7 13 12 10 7 8 11 11 12 11 12 11 12 11 10 9 9 9 9 12 14 13 14 13 14 14 13 13 14 18 18 15 10 10 12 13 12 11 11 12
4 9 1 0 9 8 11 9 8 8 7 9 9 10 11 11 12 12 11 9 9 9 12 10 11 15 13 11 11 11 13 13 15 17 15 15 15 12 10 10 11 11 11 11 11
6 6 2 2 12 11 8 9 8 9 9 10 11 9 9 11 14 11 10 8 10 10 11 10 14 18 16 13 13 14 13 12 12 13 16 17 15 12 12 11 10 11 11 11 11
6 10 7 6 6 8 10 10 11 8 9 8 9 9 10 12 11 12 12 9 10 10 9 9 13 15 17 13 12 14 13 13 13 15 15 15 13 13 12 11 10 10 10 10 11
7 9 7 11 10 9 9 10 11 11 9 8 10 10 11 13 13 13 11 11 11 10 10 10 16 14 12 12 12 13 12 13 15 14 15 13 12 10 10 10 10 10 10 10 11
9 9 7 8 7 9 10 11 11 10 10 11 11 10 10 12 12 14 12 11 12 12 12 11 15 14 15 12 12 14 13 12 13 13 13 12 12 9 10 10 11 10 11 11 11
5 7 9 10 9 10 10 10 10 8 8 8 9 10 11 10 9 10 11 10 10 11 13 14 15 15 17 13 15 17 14 13 12 11 12 14 12 12 12 12 11 11 11 11 11

GFSSW_con_lsi_072.txt.gz
Lid_Strength_Index
1 1 1 0 0 -0 -0 -1 -1 -1 -1 -1 -1 -1 -1 -1 -0 1 4 2 1 -2 1 3 3 3 4 4 4 5 10 11 11 11 10 8 9 8 7 9 8 7 8 8 7
1 1 1 1 1 0 -0 -0 -1 -1 -1 -1 -1 -1 -1 -1 2 3 1 -2 -2 -2 3 5 5 5 6 5 5 8 10 10 9 9 10 8 8 8 9 9 9 8 7 7 6
1 1 1 1 1 0 0 -0 -1 -1 -1 -1 -1 -1 -1 0 3 4 -1 -1 -2 0 3 4 4 5 7 7 7 8 10 9 9 8 7 8 9 8 10 10 9 9 8 8 7
1 1 1 1 1 1 0 -0 -1 -1 -1 -1 -1 -1 -0 1 8 2 -1 -1 -2 2 4 4 5 7 8 9 7 10 8 8 7 7 8 9 8 9 9 9 7 8 8 8 8
0 1 1 1 1 0 0 0 -0 -1 -1 -1 -1 -1 1 4 4 1 -1 -1 2 3 4 5 7 7 9 9 8 10 9 8 7 8 8 7 9 9 9 8 8 8 8 9 9
0 0 1 1 1 0 0 0 -0 -0 -1 -1 -1 -0 2 6 1 1 2 2 3 4 5 5 6 7 8 9 9 8 8 8 8 8 8 9 9 9 9 8 9 9 9 9 9
0 0 0 0 0 0 0 0 0 -0 -1 -1 -1 1 3 4 1 1 3 3 3 4 5 4 5 7 7 9 7 8 10 8 8 8 9 9 11 10 9 9 10 9 10 10 9
0 0 1 0 0 0 0 0 0 0 -1 -0 -0 2 6 2 1 2 3 4 4 4 4 4 5 6 7 7 9 11 10 12 9 8 10 10 13 9 9 10 10 10 11 10 10
0 0 0 0 0 0 0 0 1 -0 0 0 2 3 7 2 4 2 3 4 5 5 5 5 5 8 9 12 13 12 14 13 11 9 10 11 12 11 10 10 11 11 11 11 11
-0 0 0 0 0 0 0 0 -0 0 1 1 2 6 5 6 4 3 3 3 5 6 6 7 9 11 11 13 16 14 14 12 12 10 11 12 12 11 10 11 12 11 11 12 12
1 1 0 -0 -0 -0 1 1 4 5 3 5 5 5 5 6 4 4 4 5 6 7 10 9 12 13 12 11 11 12 13 13 11 10 12 12 12 10 11 11 12 11 11 12 12
1 1 1 1 0 0 1 4 3 4 8 4 5 5 4 6 8 6 5 8 8 11 10 12 14 10 10 10 11 12 13 13 11 10 12 13 13 11 11 11 11 11 12 12 13
1 1 1 1 1 2 2 2 1 3 7 6 5 6 6 7 8 8 7 8 10 11 11 12 11 9 11 12 12 13 14 13 13 12 13 14 15 13 10 10 11 11 11 12 13
1 2 2 1 3 2 3 1 2 3 11 9 8 6 6 7 9 6 7 8 10 12 11 11 9 10 12 12 12 14 11 12 13 15 17 13 18 15 12 12 12 13 13 13 13
1 1 1 1 3 4 3 1 2 4 20 8 9 6 6 8 9 10 8 9 11 11 11 13 13 12 13 12 11 13 12 13 14 15 16 16 17 16 14 13 13 13 13 13 13
2 1 1 2 3 2 2 3 4 13 19 11 10 10 10 9 10 10 10 9 9 11 11 12 11 12 12 11 11 11 13 14 15 15 19 16 16 16 13 12 13 13 13 13 13
2 2 2 1 4 3 2 5 14 18 10 12 12 10 10 11 11 11 12 13 13 16 15 13 12 12 11 13 13 13 15 19 20 20 20 16 16 14 13 13 12 13 13 13 13
1 2 2 1 2 2 3 9 17 13 12 9 10 10 11 10 11 12 13 14 12 13 14 15 16 12 11 12 14 15 14 17 23 22 19 18 19 15 14 13 12 12 12 13 13
1 2 2 1 2 2 7 15 15 12 9 10 11 12 12 10 11 12 13 13 11 12 15 14 14 12 12 11 11 14 16 12 16 22 22 17 16 14 15 14 13 13 13 13 14
2 3 4 0 1 3 10 13 12 9 8 9 13 11 14 12 13 12 12 11 11 10 10 12 16 13 14 12 12 13 12 17 16 22 22 18 17 16 16 15 14 14 13 13 14
3 6 3 0 1 7 13 12 10 8 8 10 11 12 12 12 12 12 12 11 9 10 10 11 13 16 14 15 14 15 16 15 14 16 20 21 18 15 13 13 14 13 13 13 14
4 9 2 1 9 8 12 9 8 9 7 8 9 10 11 11 13 12 12 10 9 10 12 10 12 17 16 14 12 12 13 13 17 18 17 18 16 13 13 12 13 13 12 13 13
6 6 2 2 12 11 10 10 8 9 9 10 11 9 9 11 14 12 11 9 9 10 11 10 14 18 17 14 13 15 13 12 12 15 17 18 16 13 13 12 12 13 12 12 13
7 10 7 6 6 9 11 11 10 7 8 8 9 9 10 12 10 13 12 9 9 10 9 9 13 15 17 15 14 17 15 13 13 16 17 16 15 14 14 14 13 13 12 12 13
7 9 7 11 10 9 9 9 11 11 8 8 10 10 11 13 13 13 11 10 10 9 9 10 15 14 13 12 13 14 15 14 15 14 16 15 14 12 10 12 12 12 12 13 13
8 9 7 9 8 9 10 11 11 10 9 11 11 10 10 12 12 14 12 11 12 11 11 11 15 14 15 13 13 14 13 13 13 13 14 13 14 11 12 12 13 12 12 13 13
4 5 7 10 10 10 11 10 10 9 9 8 9 10 11 10 8 9 9 9 9 11 12 13 14 15 17 15 14 17 14 13 13 12 12 15 13 13 13 12 13 12 12 12 12

GFSSW_con_lsi_075.txt.gz
Lid_Strength_Index
1 1 1 0 0 0 -0 -0 -1 -1 -1 -1 -1 -1 -1 -1 -0 1 5 3 1 -1 1 5 6 6 6 7 7 9 12 14 13 13 12 10 10 9 8 10 9 8 9 8 7
1 1 1 1 1 0 0 -0 -0 -1 -1 -1 -1 -1 -1 -1 2 5 1 -2 -2 -1 5 7 8 7 9 8 8 11 13 13 12 11 11 10 10 10 10 10 10 9 8 7 7
1 1 1 1 1 1 0 0 -0 -1 -1 -1 -1 -1 -1 0 5 5 -1 -2 -2 0 4 6 6 7 10 10 10 10 12 11 10 9 9 10 10 9 11 12 10 10 9 8 8
0 1 1 1 1 1 0 0 -0 -0 -0 -1 -1 -1 -0 3 11 4 -1 -1 -1 3 5 6 7 10 11 11 9 12 10 10 8 9 9 10 9 11 10 10 8 9 8 9 9
0 0 1 1 1 1 0 0 -0 -0 -0 -1 -1 -1 3 6 6 2 -1 -0 3 5 6 7 9 9 11 11 10 12 11 9 9 9 10 9 10 10 11 10 9 8 8 9 9
0 0 1 1 1 0 0 0 -0 -0 -0 -1 -1 -0 4 9 2 2 2 3 4 6 7 7 8 9 10 11 11 10 10 10 9 9 9 10 11 10 10 10 10 9 10 10 10
-0 0 0 0 0 0 0 0 0 0 -0 -1 -1 2 5 6 2 3 4 5 5 5 7 6 7 9 9 10 9 10 12 10 10 10 10 10 11 11 10 10 11 11 11 10 10
-0 0 0 0 0 0 0 -0 0 0 -0 -0 -0 3 7 3 3 3 4 5 5 5 5 6 6 8 9 9 10 12 13 14 11 11 11 11 14 10 11 11 11 11 12 11 11
0 0 0 0 0 0 0 -0 0 -0 -0 -0 3 5 8 2 4 3 4 6 6 6 6 5 7 9 10 12 14 14 16 15 13 11 12 13 14 12 11 11 12 12 12 12 12
0 0 0 0 0 0 0 -0 0 0 0 1 2 8 6 7 5 4 4 5 6 7 8 8 10 12 12 14 17 16 16 14 14 12 13 14 13 12 11 11 12 12 12 13 13
0 -0 -0 0 0 -0 1 2 5 6 5 7 7 7 7 6 5 5 5 6 7 8 11 11 13 14 12 13 13 14 15 15 13 12 13 14 13 12 12 13 13 13 12 13 13
2 1 1 0 0 -0 2 4 5 5 9 5 5 6 6 6 9 6 5 9 10 12 11 13 15 11 11 12 13 13 14 15 13 12 13 14 14 12 12 12 12 12 12 12 14
1 1 1 1 1 2 3 4 2 3 8 6 5 5 5 7 8 8 7 9 11 12 12 14 12 10 11 12 13 14 14 14 14 13 14 15 15 14 13 12 12 11 12 12 13
1 1 1 1 3 2 3 2 1 4 12 10 8 6 7 6 9 7 7 9 11 12 11 13 11 12 13 13 13 15 12 13 13 15 18 15 18 15 13 13 13 12 13 14 14
2 1 1 1 3 4 2 1 3 5 20 9 9 6 7 8 10 11 9 10 12 12 12 14 13 13 13 13 12 14 13 14 14 16 17 17 18 17 14 13 12 13 15 15 14
2 2 1 2 2 3 3 2 4 13 19 12 10 11 11 10 11 11 10 10 10 12 13 13 12 12 12 12 12 12 14 14 15 16 20 17 17 17 15 13 14 14 14 14 14
2 2 2 1 4 2 2 4 14 18 10 13 13 11 11 12 12 12 13 14 15 16 16 14 13 13 12 14 14 14 16 19 20 21 20 16 17 14 12 12 13 14 14 14 13
2 2 3 1 2 2 4 9 18 13 13 10 10 11 12 11 12 13 14 15 13 14 16 16 17 13 12 13 15 15 15 19 23 22 20 18 19 15 13 13 13 12 13 14 14
1 3 3 2 2 2 7 15 15 12 10 11 11 12 13 11 12 13 15 15 13 13 15 16 15 13 13 12 12 15 17 13 17 24 22 18 16 14 14 14 15 14 14 14 15
3 4 6 2 1 4 9 13 12 9 8 10 13 11 14 12 12 13 14 12 12 11 11 13 16 14 14 13 13 14 13 17 15 22 23 19 18 16 15 15 15 15 15 14 15
3 7 4 1 1 7 13 12 11 8 8 11 12 12 12 12 12 13 13 11 10 11 10 12 13 17 15 15 15 15 16 15 14 17 21 22 18 14 13 13 14 14 14 14 15
4 9 3 1 9 9 12 11 9 9 8 9 9 10 12 11 13 12 13 11 10 10 13 11 12 19 16 14 13 14 14 13 16 19 18 19 17 14 14 13 13 14 14 14 15
7 8 2 2 12 12 11 11 10 10 9 10 10 9 9 11 14 12 11 8 9 9 10 10 14 18 16 14 13 15 14 12 13 14 17 18 17 14 14 13 14 14 14 14 15
7 11 7 6 6 10 11 11 12 9 9 8 9 9 10 12 10 13 12 9 9 8 8 8 13 15 17 15 14 17 16 14 13 16 17 16 14 14 14 14 13 14 14 14 15
7 10 9 11 10 9 9 10 12 12 9 8 10 10 11 13 12 13 11 10 10 9 9 10 15 13 13 12 13 14 15 14 14 14 16 14 14 12 11 11 12 13 14 14 15
8 8 8 9 9 10 10 11 11 10 10 11 11 10 10 12 11 13 11 11 12 10 10 10 15 13 15 12 13 14 13 12 13 13 13 13 13 11 11 12 14 13 13 13 14
6 5 7 9 10 11 11 12 10 9 8 8 9 10 11 10 9 8 8 8 9 10 11 12 13 15 17 14 14 17 14 13 12 11 13 15 12 10 12 13 12 13 13 13 13

GFSSW_con_lsi_078.txt.gz
Lid_Strength_Index
0 0 0 0 0 -0 -0 -0 -1 -1 -1 -1 -1 -1 -1 -1 -0 2 6 3 2 -0 1 6 6 7 7 8 8 10 13 15 14 14 12 11 11 10 9 10 10 9 9 9 8
1 1 1 1 1 0 0 -0 -0 -0 -1 -1 -1 -1 -1 -1 3 5 1 -1 -1 -1 6 8 9 8 9 9 9 11 14 13 13 12 12 11 11 10 11 11 11 10 9 8 7
0 1 1 1 1 1 0 0 -0 -0 -1 -1 -1 -1 -1 0 6 6 -1 -1 -1 1 5 7 7 8 11 11 10 12 14 12 11 11 10 10 11 10 11 12 11 10 9 9 8
0 1 1 1 1 1 0 0 -0 -0 -0 -0 -1 -1 -0 3 12 5 -1 -1 -1 4 6 7 8 10 12 12 10 13 11 11 10 10 11 11 10 11 11 11 9 9 9 9 9
-0 0 1 1 1 1 0 0 0 -0 -0 -0 -1 -1 3 8 7 3 -0 0 3 6 7 8 10 10 12 12 11 12 11 10 10 10 10 10 11 11 11 10 10 9 9 9 9
-0 -0 0 0 0 0 0 0 -0 -0 -0 -1 -1 -0 5 10 3 3 3 4 5 7 8 8 9 9 11 11 12 11 11 11 10 10 10 11 12 11 11 10 10 10 10 10 10
-0 -0 0 0 0 -0 -0 -0 -0 -0 -0 -1 -1 2 6 7 3 3 4 6 6 6 7 7 8 9 10 11 10 11 12 11 11 11 11 10 12 12 11 11 11 11 11 11 10
-0 -0 -0 0 -0 -0 -0 -0 -0 0 -0 -1 -0 4 8 4 4 4 5 6 6 6 6 7 7 8 10 10 11 13 13 15 12 11 11 11 14 11 12 12 12 12 13 11 11
0 0 -0 -0 -0 -0 -0 -0 -0 -0 -1 -1 3 6 8 3 4 3 5 6 6 6 7 5 7 10 11 13 14 14 16 15 13 12 12 13 14 12 13 13 12 13 13 12 12
0 0 0 -0 -0 -0 -0 -1 -0 0 1 1 3 8 7 7 5 4 5 5 7 8 8 9 10 12 13 13 16 16 16 15 15 13 13 14 14 13 13 12 12 12 13 13 12
-0 -0 0 -0 -0 -0 1 3 5 6 5 8 8 8 7 6 5 5 5 7 7 9 12 11 13 14 12 13 13 14 15 15 14 12 14 14 14 12 13 14 13 13 13 13 13
1 0 -0 -0 -0 -0 2 5 5 5 9 5 5 6 6 6 9 6 6 9 10 12 11 13 14 11 11 12 13 14 15 15 14 12 14 14 15 13 13 13 12 12 12 13 14
3 1 1 0 0 1 3 3 2 4 9 7 5 6 6 7 8 8 7 9 10 12 12 14 12 11 11 13 14 14 15 16 15 13 14 15 15 14 13 12 11 11 11 12 13
3 3 2 1 3 2 4 2 2 4 12 10 8 7 7 7 9 6 6 8 10 11 11 13 11 12 13 14 13 16 13 13 14 16 18 15 19 15 14 13 13 12 14 13 13
3 3 3 1 3 4 2 1 2 4 20 9 8 5 6 7 9 9 7 9 11 12 11 14 14 14 14 13 13 14 13 14 15 17 18 18 18 17 15 14 12 12 14 14 13
3 3 3 2 3 2 2 2 4 13 19 12 10 9 9 9 11 10 10 9 10 12 14 14 13 13 12 13 12 12 14 15 16 17 20 17 17 18 15 14 13 14 15 14 14
3 3 3 2 4 3 2 4 14 18 10 13 13 11 11 12 12 12 13 14 14 16 17 15 14 13 13 14 13 14 15 19 20 21 20 17 18 15 13 12 13 12 14 15 13
3 3 3 3 2 2 3 9 18 13 13 11 11 12 13 12 13 13 15 16 13 14 16 17 17 14 13 13 15 15 15 19 23 22 20 18 19 16 13 13 13 13 14 14 14
3 3 4 3 3 2 7 15 15 13 10 11 11 13 13 12 13 14 15 15 13 13 15 17 17 14 14 13 12 16 17 14 18 25 22 18 16 14 14 13 14 15 15 15 15
5 5 5 2 2 4 10 14 12 10 8 10 13 11 14 12 13 14 15 13 13 12 12 14 16 15 15 13 14 15 14 18 17 22 22 20 19 16 14 14 15 15 15 15 15
4 7 6 2 3 7 14 13 11 8 8 10 12 13 12 13 12 13 13 12 11 12 11 12 13 16 15 15 15 15 16 16 15 18 22 23 19 14 15 14 14 15 15 15 16
5 10 4 2 9 10 12 11 9 9 8 9 9 10 12 12 12 12 13 12 10 10 14 12 13 19 16 14 13 14 14 14 17 19 19 19 17 14 14 14 13 14 14 15 15
7 8 3 3 12 12 12 11 11 11 9 10 11 9 9 12 14 12 11 8 10 10 11 11 14 18 16 14 13 15 14 13 13 15 17 19 17 14 14 14 14 15 15 15 16
7 10 8 6 6 9 11 12 12 10 10 9 10 9 10 12 10 13 12 9 9 8 8 9 13 15 17 15 14 16 15 13 13 17 17 16 14 13 15 14 14 14 14 15 15
6 10 8 11 11 10 9 10 12 12 10 10 10 10 11 13 12 13 11 10 10 9 9 10 15 13 13 13 14 16 15 15 14 13 16 14 14 12 11 12 12 13 14 15 16
8 10 8 8 8 9 10 11 11 11 10 11 11 11 10 12 11 13 11 11 12 11 10 10 15 13 15 13 13 14 14 13 13 13 13 13 13 9 11 12 13 12 14 14 15
6 6 8 9 10 10 10 11 11 9 9 8 9 10 10 10 8 10 9 9 9 10 11 12 13 15 17 14 14 17 14 13 12 11 12 14 11 9 11 11 10 11 13 13 13

GFSSW_con_lsi_084.txt.gz
Lid_Strength_Index
-0 -0 0 0 0 -0 -0 -0 -0 -0 -0 -1 -1 -1 -1 -1 -0 3 8 4 3 -1 1 7 8 8 8 9 9 12 14 16 15 14 13 12 12 11 11 11 11 10 9 8 6
0 0 0 0 0 0 -0 -0 -0 -0 -0 -0 -1 -1 -1 -1 4 6 1 -1 -2 -0 7 9 10 9 10 10 11 13 15 14 13 13 12 12 12 11 11 12 12 11 10 9 4
0 0 0 0 0 0 -0 -0 -0 -0 -0 -0 -0 -1 -1 1 8 8 -1 -2 -1 2 6 8 8 10 11 10 10 14 15 13 13 12 12 12 12 11 12 13 11 11 10 9 6
-0 0 0 0 0 0 -0 -0 -0 -0 -0 -0 -1 -1 -0 4 14 6 -1 -1 -1 5 7 8 10 11 13 12 11 13 12 13 11 11 12 12 12 13 12 11 11 10 9 9 7
-1 -0 -0 0 1 0 0 -0 -0 -0 -0 -0 -1 -1 3 9 8 5 -0 1 5 7 8 9 11 12 13 12 12 12 13 12 11 11 12 11 11 12 12 11 11 11 10 9 9
-0 -0 -0 -0 0 0 0 -0 -0 -0 -0 -0 -1 -0 6 11 5 4 5 6 7 8 9 9 10 10 12 13 12 13 12 12 11 11 11 12 13 12 12 12 12 11 11 10 9
-0 -0 0 -0 -0 -0 -0 -0 -0 -0 -0 -0 -1 2 7 8 4 4 6 7 7 8 9 9 9 11 11 12 11 12 13 12 12 12 12 12 12 13 13 12 12 12 12 11 11
-0 -0 -0 -0 0 -0 -0 -0 -1 -0 -1 -1 -1 5 8 5 4 5 6 7 7 7 7 8 8 9 11 11 11 13 13 15 13 12 12 12 14 12 13 12 12 12 13 12 12
0 0 -0 -0 -0 0 0 -0 -0 -0 -0 -1 5 7 9 3 5 4 6 7 7 8 7 6 8 11 11 13 14 14 16 16 13 12 13 14 14 13 13 13 13 13 13 13 13
1 1 0 -0 -0 -0 -0 -0 -0 1 1 1 3 8 7 8 6 5 6 6 8 9 9 9 11 13 14 14 17 16 16 16 15 14 14 15 14 13 13 13 13 13 14 13 13
1 1 0 -0 -0 -1 1 3 6 7 5 8 8 9 8 6 5 6 6 7 8 9 12 12 13 14 12 13 13 14 15 16 15 13 14 14 15 12 12 14 13 12 13 13 12
2 1 1 0 -0 -1 1 5 6 6 8 5 6 6 6 6 8 7 6 9 10 12 12 13 14 11 11 13 13 15 16 15 14 13 14 14 15 13 12 12 11 10 13 12 14
3 2 2 1 -0 0 2 3 2 3 8 7 6 6 6 7 9 8 7 9 11 13 12 13 12 11 11 14 14 15 16 16 15 14 15 16 17 15 13 13 11 11 13 13 13
2 3 2 1 3 2 3 1 1 3 12 10 8 7 7 7 9 7 7 9 11 12 12 13 12 12 13 14 13 16 13 14 15 16 18 16 19 16 14 13 11 13 13 13 13
3 2 2 2 4 4 2 0 2 4 20 9 9 5 8 8 9 9 7 9 11 11 11 13 13 13 14 13 12 14 13 14 15 17 18 19 19 18 15 14 12 13 14 14 14
1 2 2 3 3 2 2 1 2 13 19 12 9 10 10 10 10 10 9 8 9 11 12 13 12 12 12 13 12 13 14 15 17 17 20 18 18 18 16 14 14 13 13 13 14
1 1 3 2 5 2 2 4 14 18 10 13 13 11 11 12 12 11 11 12 12 14 14 14 13 13 12 13 13 15 15 19 20 21 20 19 19 15 14 13 14 13 13 13 15
1 1 2 3 3 3 5 9 18 13 13 11 12 12 13 12 13 13 13 13 12 14 16 15 17 13 12 12 14 15 15 18 22 22 21 19 20 16 14 13 13 14 14 15 15
1 3 3 2 3 4 8 16 15 14 11 12 11 13 14 13 14 14 14 15 13 13 13 16 16 14 14 14 12 16 17 14 18 25 23 19 17 15 13 13 13 14 14 15 15
5 5 4 1 2 5 10 15 14 11 9 10 14 12 15 14 14 15 16 13 13 12 12 13 16 15 15 13 14 14 14 17 19 24 25 20 20 17 15 14 14 14 14 15 15
6 7 5 0 2 8 15 14 12 9 9 11 12 13 12 13 13 15 14 13 12 13 11 13 14 17 15 16 16 16 17 17 16 18 22 24 19 16 15 14 14 14 14 14 15
5 11 4 1 9 9 13 12 10 10 8 9 10 11 12 11 13 14 14 13 11 12 14 13 14 18 17 15 14 15 15 15 17 20 20 20 18 14 14 14 14 14 14 15 15
8 8 3 2 12 11 9 10 9 10 10 10 11 10 10 12 14 12 11 9 10 12 13 11 14 18 17 14 14 16 15 14 14 16 20 21 18 15 16 15 14 14 14 15 15
8 12 8 5 6 9 11 11 11 9 10 8 10 9 10 12 11 13 12 9 9 10 9 9 13 15 18 16 14 16 15 14 13 16 19 16 15 14 15 14 14 14 14 15 15
9 11 8 12 10 9 9 10 11 12 9 9 10 10 11 13 13 13 11 11 10 9 9 10 15 14 13 13 14 15 15 15 15 14 16 14 14 12 11 11 11 13 13 15 15
11 11 10 11 8 9 9 10 11 10 10 11 11 10 10 12 12 14 11 11 12 11 11 10 15 14 15 13 13 15 14 14 14 13 13 13 14 11 11 12 13 12 13 14 14
9 8 8 10 12 12 11 10 10 9 8 8 9 10 11 10 9 9 8 9 9 11 12 12 14 15 17 14 14 17 14 14 14 13 13 15 12 9 12 12 11 11 12 12 13